星链-2560 (STARLINK-2560 )

导读 | 豆包AI

STARLINK-2560是美国SpaceX公司星链(Starlink)低轨通信星座的成员卫星,于2021年5月4日发射。星链星座旨在为全球提供宽带互联网服务,该卫星采用平板设计,单星重约227千克,搭载氪工质霍尔推进器,具备自主避撞能力,设计寿命5-7年,退役后将主动离轨再入大气层烧毁,服务全球偏远地区互联网接入。

基本信息
目录编号:
48402
目录名称:
STARLINK-2560
国际标识:
2021-038BB
轨道中心:
EARTH
卫星名称:
星链-2560
卫星全名:
星链-2560 (STARLINK-2560 )
卫星状态:
已陨落 最后检测时间 2024-08-30
发射日期:
2021-05-04 UTC
国别 :
美国 (US)
星等 :
--
轨道信息
数据来源 国际轨道数据
星历时间: 2024-08-30T18:00:37+0800
轨道信息已过期561天
半长轴: 6555.052km
偏心率: 0.00018
轨道倾角: 53.025°
近地点辐角 341.917°
升交点赤经 239.918°
平近点角 137.057°
近地点: 175.737km
远地点: 178.097km
周期: 88.029分钟
每日圈数: 16.358316
详细信息
固有亮度:
5
最大亮度:
2.5
卫星平台:
Starlink V1.0
覆盖范围:
全球
运营商:
太空探索技术公司
运营商所在国:
美国
制造商(研发单位):
太空探索技术公司
制造商所在国:
美国
使用方式:
暂无
卫星简介
星链(Starlink)计划是由太空探索技术公司(SpaceX)提出的一个巨型低轨卫星互联网星座项目,计划在2019年至2024年间在太空搭建由约1.2万颗卫星组成的“星链”网络,其中1584颗将部署在地球上空550千米处的近地轨道,并从2020年开始工作。该卫星仍在工作。